Nellis AFB, NV

6:24 PM PDT on July 26, 2017 (GMT -0700)
Nellis Air Force Base

Weather History for KLSV - January, 2013

Change the Weather History Date:

Monday, January 14, 2013

  Actual Average Record
Temperature  
Mean Temperature 30 °F -  
Max Temperature 37 °F 57 °F 69 °F (2014)
Min Temperature 24 °F 35 °F 19 °F (2007)
Degree Days  
Heating Degree Days 34    
Moisture  
Dew Point -2 °F    
Average Humidity 27    
Maximum Humidity 34    
Minimum Humidity 17    
Precipitation  
Precipitation 0.00 in - - ()
Sea Level Pressure  
Sea Level Pressure 30.39 in    
Wind  
Wind Speed 5 mph (NE)    
Max Wind Speed 21 mph    
Max Gust Speed 18 mph    
Visibility 10 miles    
Events      
Averages and records for this station are not official NWS values.
T = Trace of Precipitation, MM = Missing Value Source: NWS Daily Summary

Daily Weather History Graph

Daily Weather History Graph

Search for Another Location

Airport or City:

Trip Planner

Search our weather history database for the weather conditions in past years. The results will help you decide how hot, cold, wet, or windy it might be!

Date:

Astronomy

Jan. 14, 2013 Rise Set
Actual Time 6:50 AM PST 4:48 PM PST
Civil Twilight 6:22 AM PST 5:16 PM PST
Nautical Twilight 5:51 AM PST 5:47 PM PST
Astronomical Twilight 5:20 AM PST 6:18 PM PST
Moon 8:33 AM PST (1/14) 8:30 PM PST (1/14)
Length of Visible Light 10h 53m
Length of Day
9h 57m
Waxing Crescent, 12% of the Moon is Illuminated
Jan 14
Waxing Crescent
Jan 18
First Quarter
Jan 26
Full
Feb 3
Last Quarter
Feb 9
New

Hourly Weather History & Observations

Time (PST) Temp. Windchill Dew Point Humidity Pressure Visibility Wind Dir Wind Speed Gust Speed Precip Events Conditions
12:58 AM 28.0 °F 22.8 °F -1.3 °F 28% 30.29 in 10.0 mi North 4.6 mph 18.4 mph N/A   Clear
1:58 AM 27.3 °F - -2.4 °F 28% 30.30 in 10.0 mi Calm Calm - N/A   Clear
2:58 AM 26.6 °F - -1.8 °F 29% 30.31 in 10.0 mi NNE 1.2 mph - N/A   Clear
3:58 AM 25.9 °F - -2.2 °F 30% 30.31 in 10.0 mi Calm Calm - N/A   Clear
4:58 AM 25.2 °F - -1.5 °F 32% 30.32 in 10.0 mi Calm Calm - N/A   Clear
5:58 AM 24.3 °F - -1.5 °F 33% 30.35 in 10.0 mi Calm Calm - N/A   Clear
6:58 AM 24.1 °F - -1.8 °F 32% 30.37 in 10.0 mi Calm Calm - N/A   Clear
7:58 AM 25.0 °F - -1.5 °F 32% 30.40 in 10.0 mi Calm Calm - N/A   Clear
8:58 AM 29.1 °F - -1.7 °F 27% 30.40 in 10.0 mi Calm Calm - N/A   Clear
9:58 AM 31.3 °F - -2.4 °F 24% 30.40 in 10.0 mi Calm Calm - N/A   Clear
10:58 AM 33.3 °F - -2.6 °F 22% 30.38 in 10.0 mi North 1.2 mph - N/A   Clear
11:58 AM 34.5 °F 25.7 °F -3.6 °F 20% 30.36 in 10.0 mi NNE 12.7 mph - N/A   Clear
12:58 PM 36.3 °F 30.1 °F -4.5 °F 17% 30.35 in 10.0 mi NNE 8.1 mph 17.3 mph N/A   Clear
1:58 PM 36.5 °F 27.0 °F -3.1 °F 19% 30.36 in 10.0 mi NNE 16.1 mph 17.3 mph N/A   Clear
2:58 PM 37.4 °F 32.1 °F -3.6 °F 17% 30.37 in 10.0 mi NNE 6.9 mph 18.4 mph N/A   Clear
3:58 PM 37.2 °F - -3.8 °F 17% 30.38 in 10.0 mi Calm Calm - N/A   Clear
4:58 PM 36.3 °F 28.9 °F -3.3 °F 19% 30.41 in 10.0 mi NNE 10.4 mph - N/A   Clear
5:58 PM 31.8 °F 21.0 °F -0.4 °F 25% 30.44 in 10.0 mi NE 16.1 mph - N/A   Clear
6:58 PM 30.0 °F 19.1 °F 0.7 °F 29% 30.45 in 10.0 mi NE 15.0 mph - N/A   Clear
7:58 PM 28.2 °F 17.2 °F 0.7 °F 31% 30.48 in 10.0 mi ENE 13.8 mph - N/A   Clear
8:58 PM 26.8 °F 18.5 °F 0.7 °F 33% 30.47 in 10.0 mi NE 8.1 mph - N/A   Clear
9:58 PM 25.7 °F 16.4 °F 0.7 °F 34% 30.46 in 10.0 mi ENE 9.2 mph - N/A   Clear
10:58 PM 27.1 °F 13.4 °F 1.0 °F 33% 30.47 in 10.0 mi NE 20.7 mph - N/A   Clear
11:58 PM 26.2 °F 15.8 °F 0.9 °F 34% 30.48 in 10.0 mi ENE 11.5 mph - N/A   Clear